[Date Prev][Date Next][Thread Prev][Thread Next] - [Date Index][Thread Index][Author Index]
2 Line ISS Keps 5-11
- Subject: [sarex] 2 Line ISS Keps 5-11
- From: "Dave Larsen PhD" <doc@xxxxxxxxxxx>
- Date: Sat, 11 May 2002 05:41:13 -0700
ISS
1 25544U 98067A 02131.49106877 .00045228 00000-0 56270-3 0 4291
2 25544 51.6364 237.4254 0007844 52.9103 5.8081 15.59456430198302
----
Via the sarex mailing list at AMSAT.ORG courtesy of AMSAT-NA.
To unsubscribe, send "unsubscribe sarex" to Majordomo@amsat.org
AMSAT Home